Flag Weather past 2 weeks in Pocatello, Idaho, U.S.A.

Now
70 °F

Sunny.


Feels Like: 75 °F
Forecast: 40 / 71 °F
Wind: 7 mph from Northeast

Location: Pocatello Regional Airport

Current Time: Oct 30, 2014 at 6:10:37 PM

Latest Report: Oct 30, 2014 at 4:53 PM


Visibility: 10 mi

Pressure: 30.09 "Hg

Humidity: 26%

Dew point: 33 °F

Location of PocatelloLocation

Historic Weather in Pocatello — Graph

°F

Pocatello temperature yesterday

Maximum temperature yesterday: 63 °F (at 2:53 PM)
Minimum temperature yesterday: 27 °F (at 2:53 AM)
Average temperature yesterday: 48 °F

Past Weeks' High & Low Weather Summary

 TemperatureHumidityPressure
High78 °F (Oct 20, 2:53 PM)96% (Oct 17, 5:53 AM)30.33 "Hg (Oct 17, 5:53 AM)
Low21 °F (Oct 28, 6:53 AM)17% (Oct 24, 3:53 PM)29.63 "Hg (Oct 21, 3:53 AM)
Average49 °F55%30.06 "Hg
* Reported Oct 15 4:53 PM — Oct 30 4:53 PM, Pocatello, Weather by CustomWeather, © 2014

Note: Actual official high and low records may vary slightly from our data, if they occured in-between our weather recording intervals... More about our weather records

Advertising

Pocatello weather history for previous 24 hours

 ConditionsComfort  
Time TempWeatherWind HumidityBarometerVisibility
4:53 PM
Oct 30
70 °FSunny.7 mph26%30.09 "Hg10 mi
3:53 PM70 °FSunny.7 mph26%30.09 "Hg10 mi
2:53 PM69 °FSunny.7 mph26%30.13 "Hg10 mi
1:53 PM66 °FSunny.7 mph28%30.15 "Hg10 mi
12:53 PM63 °FSunny.6 mph31%30.17 "Hg10 mi
11:53 AM59 °FSunny.7 mph36%30.20 "Hg10 mi
10:53 AM55 °FPassing clouds.7 mph45%30.22 "Hg10 mi
9:53 AM46 °FPassing clouds.6 mph63%30.24 "Hg10 mi
8:53 AM43 °FClear.5 mph65%30.24 "Hg10 mi
7:53 AM37 °FPassing clouds.5 mph76%30.25 "Hg10 mi
6:53 AM43 °FOvercast.3 mph65%30.23 "Hg10 mi
5:53 AM45 °FOvercast.5 mph60%30.23 "Hg10 mi
4:53 AM42 °FMostly cloudy.9 mph73%30.23 "Hg10 mi
3:53 AM41 °FPassing clouds.7 mph67%30.24 "Hg10 mi
2:53 AM39 °FClear.6 mph67%30.23 "Hg10 mi
1:53 AM45 °FPassing clouds.No wind56%30.21 "Hg10 mi
12:53 AM52 °FOvercast.7 mph43%30.20 "Hg10 mi
11:53 PM
Oct 29
52 °FOvercast.8 mph43%30.20 "Hg10 mi
10:53 PM52 °FOvercast.7 mph45%30.20 "Hg10 mi
9:53 PM54 °FOvercast.10 mph45%30.20 "Hg10 mi
8:53 PM55 °FOvercast.9 mph49%30.23 "Hg10 mi
7:53 PM56 °FOvercast.12 mph47%30.22 "Hg10 mi
6:53 PM56 °FSunny.8 mph47%30.21 "Hg10 mi
Weather by CustomWeather, © 2014

See weather overviewHow to use our weather pages